Hourly Data Report for September 01, 2017

All times are specified in Local Standard Time (LST). Add 1 hour to adjust for Daylight Saving Time where and when it is observed.

ST. JOHN'S INTL A
NEWFOUNDLAND

47°37'07.000" N
52°45'09.000" W
140.50 m
8403505
71801
YYT

Download Data

Hourly Data (September 2017)
Hourly Data Report for September 1, 2017
Temp Definition
°C
Dew Point Temp Definition
°C
Rel Hum Definition
%
Wind Dir Definition
10's deg

Wind Spd Definition
km/h
Visibility Definition
km
Stn Press Definition
kPa
Hmdx Definition


Wind Chill Definition


Weather Definition


TIME
00:30 Legend Double Dagger 11.3 11.2 100 5 32 0.8 97.64     Rain,Fog
01:30 Legend Double Dagger 11.1 11.0 100 3 27 0.8 97.62     Rain,Fog
02:30 Legend Double Dagger 11.2 11.1 100 2 28 0.8 97.59     Rain,Fog
03:30 Legend Double Dagger 11.1 11.1 100 36 25 2.4 97.63     Rain,Fog
04:30 Legend Double Dagger 11.1 11.1 100 1 26 3.2 97.72     Rain,Fog
05:30 Legend Double Dagger 11.2 11.1 100 36 28 2.4 97.79     Rain,Fog
06:30 Legend Double Dagger 11.3 11.2 99 34 25 24.1 97.90     Drizzle
07:30 Legend Double Dagger 11.5 11.2 98 33 34 2.4 98.00     Drizzle,Fog
08:30 Legend Double Dagger 11.8 11.6 98 33 32 2.4 98.10     Drizzle,Fog
09:30 Legend Double Dagger 12.4 11.9 97 33 30 3.2 98.17     Drizzle,Fog
10:30 Legend Double Dagger 13.0 12.3 96 30 30 4.0 98.27     Drizzle,Fog
11:30 Legend Double Dagger 14.4 12.4 87 30 33 24.1 98.34     Mostly Cloudy
12:30 Legend Double Dagger 14.5 12.3 86 30 27 24.1 98.44     LegendNANA
13:30 Legend Double Dagger 16.4 11.9 74 29 37 24.1 98.44     LegendNANA
14:30 Legend Double Dagger 15.7 11.8 77 27 30 24.1 98.54     Mostly Cloudy
15:30 Legend Double Dagger 15.7 11.4 75 28 23 24.1 98.63     LegendNANA
16:30 Legend Double Dagger 16.4 11.4 72 28 27 24.1 98.64     LegendNANA
17:30 Legend Double Dagger 15.8 11.4 75 27 24 24.1 98.72     Mainly Clear
18:30 Legend Double Dagger 14.4 11.6 83 25 13 24.1 98.74     LegendNANA
19:30 Legend Double Dagger 13.7 11.4 86 22 10 24.1 98.74     LegendNANA
20:30 Legend Double Dagger 14.0 12.6 91 24 21 24.1 98.76     Mostly Cloudy
21:30 Legend Double Dagger 14.1 12.5 90 25 31 24.1 98.77     LegendNANA
22:30 Legend Double Dagger 12.8 10.9 88 26 22 24.1 98.69     LegendNANA
23:30 Legend Double Dagger 12.0 9.7 85 25 30 24.1 98.74     Clear

Notes on Data Quality.

Legend

  • E = Estimated
  • M = Missing
  • NA = Not Available
  • ‡ = Partner data that is not subject to review by the National Climate Archives
Date modified: